TimeCDT,TemperatureF,Dew PointF,Humidity,Sea Level PressureIn,VisibilityMPH,Wind Direction,Wind SpeedMPH,Gust SpeedMPH,PrecipitationIn,Events,Conditions,WindDirDegrees,DateUTC
12:58 AM,47.8,39.7,74,30.29,10.0,NNE,9.2,-,N/A,,Overcast,30,2013-04-25 05:58:00
1:58 AM,47.5,39.2,73,30.28,10.0,NNE,8.1,-,N/A,,Overcast,20,2013-04-25 06:58:00
2:58 AM,45.1,38.3,77,30.29,10.0,North,5.8,-,N/A,,Overcast,360,2013-04-25 07:58:00
3:08 AM,44.6,37.4,76,30.28,10.0,North,5.8,-,N/A,,Scattered Clouds,360,2013-04-25 08:08:00
3:58 AM,43.0,38.5,84,30.30,10.0,NNW,2.3,-,N/A,,Clear,340,2013-04-25 08:58:00
4:58 AM,41.4,38.3,89,30.32,10.0,NNW,4.6,-,N/A,,Clear,330,2013-04-25 09:58:00
5:55 AM,40.8,38.5,91,30.33,10.0,North,4.6,-,N/A,,Clear,10,2013-04-25 10:55:00
6:58 AM,41.9,39.2,90,30.35,10.0,NNE,4.6,-,N/A,,Clear,20,2013-04-25 11:58:00
7:58 AM,46.8,40.1,78,30.38,10.0,North,5.8,-,N/A,,Clear,10,2013-04-25 12:58:00
8:58 AM,50.2,39.4,66,30.39,10.0,NE,11.5,-,N/A,,Clear,40,2013-04-25 13:58:00
9:58 AM,54.7,37.8,53,30.40,10.0,NNE,6.9,-,N/A,,Clear,30,2013-04-25 14:58:00
10:58 AM,58.3,37.6,46,30.40,10.0,North,12.7,-,N/A,,Clear,360,2013-04-25 15:58:00
11:58 AM,61.0,37.4,42,30.39,10.0,North,10.4,-,N/A,,Clear,350,2013-04-25 16:58:00
12:58 PM,63.3,37.0,38,30.37,10.0,NW,4.6,-,N/A,,Partly Cloudy,320,2013-04-25 17:58:00
1:58 PM,65.3,37.0,35,30.36,10.0,NNW,5.8,-,N/A,,Clear,330,2013-04-25 18:58:00
2:58 PM,67.8,35.6,30,30.34,10.0,NNW,5.8,-,N/A,,Clear,340,2013-04-25 19:58:00
3:58 PM,69.3,34.5,28,30.32,10.0,North,8.1,-,N/A,,Clear,360,2013-04-25 20:58:00
4:58 PM,69.4,34.0,27,30.31,10.0,NE,8.1,-,N/A,,Clear,40,2013-04-25 21:58:00
5:58 PM,68.7,35.1,29,30.30,10.0,NNE,8.1,-,N/A,,Clear,20,2013-04-25 22:58:00
6:58 PM,66.4,37.6,35,30.32,10.0,North,3.5,-,N/A,,Clear,10,2013-04-25 23:58:00
7:58 PM,57.7,44.4,61,30.32,10.0,Calm,Calm,-,N/A,,Clear,360,2013-04-26 00:58:00
8:58 PM,52.9,45.9,77,30.33,10.0,Calm,Calm,-,N/A,,Clear,0,2013-04-26 01:58:00
9:58 PM,50.4,48.2,92,30.35,10.0,Calm,Calm,-,0.05,,Clear,360,2013-04-26 02:58:00
10:58 PM,48.7,46.4,92,30.35,10.0,Calm,Calm,-,N/A,,Clear,0,2013-04-26 03:58:00
11:58 PM,46.8,44.8,93,30.33,10.0,Calm,Calm,-,N/A,,Clear,0,2013-04-26 04:58:00